{"data":{"norad_id":62460,"intl_designator":"2024-253B","name":"SDX02","alt_names":[],"object_type":"PAYLOAD","status":"ACTIVE","operator":null,"country":"IND","launch_date":"2024-12-30","launch_site_code":"SRILR","launch_vehicle":null,"mission":null,"orbit_class":"UNKNOWN","rcs_meters":null,"size_class":null,"mass_kg":null,"dimensions":null,"purposes":[],"wikipedia_slug":null,"has_3d_model":false,"image_url":null,"decayed_at":null,"tle_current":{"epoch":"2026-09-22T22:15:17.982144Z","epoch_age_seconds":105404,"freshness":"FRESH","line1":"1 62460U 24253B   26265.92729146  .00263877  38238-4  65455-3 0  9994","line2":"2 62460  54.9907 239.8197 0007906  75.2522 284.9407 15.95444460 97976","mean_motion":15.9544446,"eccentricity":0.0007906,"inclination_deg":54.9907,"raan_deg":239.8197,"arg_perigee_deg":75.2522,"mean_anomaly_deg":284.9407,"bstar":0.00065455,"rev_number":9797,"period_min":90.256980803957,"perigee_km":281.80671390219,"apogee_km":292.34574906381,"semimajor_km":6665.213231483,"source":"CELESTRAK","updated_at":"2026-09-23T09:00:21.435487Z"}}}